Regional Weather Roundup
Issued by NWS

Home | Current Version | Previous Version | Text Only | Print | Product List | Glossary Off
Versions: 1 2 3 4 5 6 7 8 9 10 11 12 13 14 15 16 17 18 19 20 21 22 23 24 25 26 27

000
ASUS45 KTFX 270310
RWRMT
MONTANA REGIONAL WEATHER ROUNDUP
NATIONAL WEATHER SERVICE GREAT FALLS MT
900 PM MDT SUN MAR 26 2017

NOTE: "FAIR" INDICATES FEW OR NO CLOUDS BELOW 12000 FEET WITH NO
SIGNIFICANT WEATHER AND/OR OBSTRUCTIONS TO VISIBILITY.

MTZ001>007-043-270400-
WEST OF THE DIVIDE

CITY           SKY/WX    TMP DP  RH WIND       PRES   REMARKS
KALISPELL      CLOUDY    46  30  53 SW8       29.80S
MISSOULA       CLOUDY    44  36  73 NE3       29.84S
BUTTE          CLOUDY    40  29  64 S14G21    29.86R
MULLAN PASS    LGT SNOW  31  30  96 CALM      29.78S VSB 3/4
ANACONDA         N/A     39  28  65 SW8       29.84S
DEER LODGE       N/A     45  27  49 S8        29.86R
EUREKA           N/A     46  28  49 SE3       29.80S
HAMILTON         N/A     46  30  53 S6        29.83S
PLAINS           N/A     47  35  63 CALM      29.84R
RONAN            N/A     48  31  52 S6        29.87S
$$

MTZ008-052>055-270400-
SOUTHWEST MONTANA

CITY           SKY/WX    TMP DP  RH WIND       PRES   REMARKS
BOZEMAN        CLOUDY    49  22  34 SW10      29.84R
DILLON         CLOUDY    38  31  76 E3        29.86F
W YELLOWSTONE  LGT SNOW  32  28  86 SW7       29.95R WCI  26
ENNIS          CLOUDY    43  25  49 S14G25    29.93R
THREE FORKS      N/A     48  48 100 SW13      29.85R
$$

MTZ009-010-012-014-046-048-049-054-270400-
EAST SLOPES AND CENTRAL MONTANA

CITY           SKY/WX    TMP DP  RH WIND       PRES   REMARKS
CUT BANK       CLOUDY    43  22  43 W9        29.81S
GREAT FALLS    CLOUDY    46  21  37 E3        29.81S
MALMSTROM AFB  CLOUDY    44  22  40 SE3       29.81S
HELENA         CLOUDY    51  22  31 W3        29.79S
AUGUSTA        CLOUDY    41  24  50 N6        29.81S
BOWMANS CRNR   CLOUDY    43  21  41 N7        29.79S
CHOTEAU          N/A     45  21  39 N7        29.83S
CONRAD           N/A     41  31  68 W1        29.85F
FAIRFIELD      CLOUDY    45  22  39 CALM      29.80S
POWER          MOCLDY    42  18  37 NW3       29.80F
RAYNESFORD     MOCLDY    44  19  37 E3        29.82S
$$

MTZ011-013-016-021-045-047-050-051-270400-
NORTH CENTRAL MONTANA

CITY           SKY/WX    TMP DP  RH WIND       PRES   REMARKS
HAVRE          CLOUDY    38  27  64 E5        29.83F
LEWISTOWN      CLOUDY    41  24  51 SE8       29.83F
N BAR RANCH    MOCLDY    39  23  52 NW7       29.87R
CHINOOK          N/A     46  19  34 E3        29.85F
DENTON         MOCLDY    43  20  40 E12       29.80S
FORT BENTON      N/A     46  21  36 MISG      29.82F
GEYSER         MOCLDY    43  15  32 E9        29.82S
GRASS RANGE    MOCLDY    43  26  51 E5        29.83R
STANFORD       MOCLDY    41  18  39 CALM      29.83S
WINIFRED         N/A     40  26  56 E8        29.83S
$$

MTZ017>020-022>027-061-062-270400-
NORTHEAST MONTANA

CITY           SKY/WX    TMP DP  RH WIND       PRES   REMARKS
GLASGOW        CLEAR     39  25  57 NE9       29.87S
JORDAN           N/A     45  27  49 CALM      29.86R
SIDNEY         CLEAR     44  27  51 NW10      29.89R
WOLF POINT     MOCLDY    38  29  70 CALM      29.89S
MALTA          CLEAR     39  27  60 NE5       29.86S
PLENTYWOOD       N/A     46  25  42 CALM      29.89S
POPLAR           N/A     48  25  40 N5        29.89S
SCOBEY           N/A     33  17  52 CALM      29.88S
$$

MTZ028>42-056>058-270400-
SOUTHCENTRAL AND SOUTHEAST MONTANA

CITY           SKY/WX    TMP DP  RH WIND       PRES   REMARKS
BAKER          PTCLDY    44  30  57 S7        29.89S
BILLINGS       CLOUDY    53  28  38 SE6       29.84S
LIVINGSTON     CLOUDY    49  20  31 SW25G32   29.83R
MILES CITY     PTCLDY    52  27  38 CALM      29.86R
BIG TIMBER     MOCLDY    46  28  49 W6        29.86R
EKALAKA          N/A     48  34  58 SE7       29.89
FORSYTH          N/A     46  30  53 CALM      29.85S
HARLOWTON      MOCLDY    46  25  44 E3        29.82F
LAUREL           N/A     50  27  41 CALM      29.84S
$$

REGIONAL REPORTS...DAKOTAS

CITY           SKY/WX    TMP DP  RH WIND       PRES   REMARKS
WILLISTON      PTCLDY    47  24  40 N8        29.88R
MINOT          MOCLDY    46  39  76 E7        29.88R
DICKINSON      CLOUDY    49  29  46 NE5       29.87R
BEACH            N/A    N/A N/A N/A MISG        N/A
TIOGA            N/A     41  37  87 W3        29.89S
WATFORD CITY     N/A     45  34  65 CALM      29.88R
BISMARCK       CLEAR     42  36  79 SE6       29.91F
GRAND FORKS    CLOUDY    39  38  96 NE5       29.95S
FARGO          CLOUDY    38  36  92 E3        29.94F
BUFFALO SD       N/A     43  36  76 SW5       29.85R
RAPID CITY     CLOUDY    38  38 100 W3        29.93S
$$

REGIONAL REPORTS...WYOMING/IDAHO/WASHINGTON

CITY           SKY/WX    TMP DP  RH WIND       PRES   REMARKS
GILLETTE       CLOUDY    43  34  70 SE8       29.90S
SHERIDAN       CLOUDY    43  34  70 S8        29.87R
BUFFALO WY     CLOUDY    44  31  60 SW5       29.90S
CODY           CLOUDY    48  19  31 W7        29.87R
YELLOWSTONE LA   N/A     31  19  61 CALM      29.96S
IDAHO FALLS    LGT RAIN  42  37  82 SW10      29.94F
SALMON         CLOUDY    46  28  49 SE6       29.83S
BOISE          CLOUDY    48  35  60 E10       29.87F
SPOKANE        LGT RAIN  43  39  86 S5        29.81F
$$

REGIONAL REPORTS...ALBERTA

CITY           SKY/WX    TMP DP  RH WIND       PRES   REMARKS
EDMONTON       CLEAR     37  30  75 E8        29.79S WCI  31
CALGARY        MOCLDY    41  18  38 SE9       29.72F
LETHBRIDGE     CLOUDY    41  19  42 SW9       29.78S
MEDICINE HAT   CLOUDY    41  18  38 E5        29.81S
WATERTON GATE    N/A     41  23  48 SW9         N/A
CARDSTON         N/A     43  18  36 S5          N/A
MILK RIVER       N/A     39  18  41 SW3         N/A
ONEFOUR          N/A     37  19  48 E9          N/A  WCI  31
$$

REGIONAL REPORTS...SASKATCHEWAN

CITY           SKY/WX    TMP DP  RH WIND       PRES   REMARKS
SWIFT CURRENT  PTCLDY    37  30  75 E10       29.85R WCI  30
REGINA         PTCLDY    36  28  75 N8        29.86R WCI  29
SASKATOON      CLOUDY    30  27  86 NE10      29.95S WCI  21
CYPRESS HILLS    N/A     36  10  35 SW2         N/A
ROCKGLEN         N/A     39  18  41 W5          N/A
ASSINIBOIA       N/A     37  34  87 E6          N/A
$$




USA.gov is the U.S. government's official web portal to all federal, state and local government web resources and services.